Find Starlink 30548

NORAD ID: 58046 Int'l Des: 2023-156 Owner: SPXS Country: US Constellation: starlink operational
LEOCIRCULAR

リアルタイム位置

3D地球を読み込み中...

Starlink 30548について

説明を読み込み中...

次回通過

Passes for default location (London). Set your location on the main map for personalized predictions.

高度履歴

Loading altitude history...

軌道要素

1 58046U 23156U 26126.36927528 -.00000313 00000-0 15716-5 0 9992
2 58046 53.1628 260.2863 0001230 79.0786 281.0354 15.30181217143819
Epoch: May 6, 2026 • Age: 19 hours

現在のステータス

高度 477.4 km
速度 7.63 km/s
衛星直下点 36.08°N, 6.29°E
打ち上げ日 Oct 9, 2023
運用期間 2.5 years
タイプ internet

技術仕様

分類 Payload
質量 730.00 kg
乾燥質量 700.00 kg
総質量 730.00 kg
長さ 0.30 m
直径 4.10 m
スパン 29.00 m
形状 Box + pan
製造者 SPXS
バスタイプ Starlink V2M
フェーズステータス In Orbit
所有者/国 SPXS/US

Most Searched